Charlevoix, MI

4:42 AM EST on December 04, 2016 (GMT -0500)
Charlevoix Municipal

Weather History for KCVX - October, 2014

Change the Weather History Date:

Friday, October 17, 2014

  Actual Average Record
Temperature  
Mean Temperature 50 °F -  
Max Temperature 55 °F 60 °F 74 °F (2012)
Min Temperature 44 °F 43 °F 32 °F (2008)
Degree Days  
Heating Degree Days 16    
Moisture  
Dew Point 50 °F    
Average Humidity 97    
Maximum Humidity 100    
Minimum Humidity 89    
Precipitation  
Precipitation 0.00 in - - ()
Sea Level Pressure  
Sea Level Pressure 29.54 in    
Wind  
Wind Speed 8 mph (West)    
Max Wind Speed 25 mph    
Max Gust Speed 39 mph    
Visibility 5 miles    
Events Rain    
Averages and records for this station are not official NWS values.
T = Trace of Precipitation, MM = Missing Value Source: NWS Daily Summary

Daily Weather History Graph

Daily Weather History Graph

Search for Another Location

Airport or City:

Trip Planner

Search our weather history database for the weather conditions in past years. The results will help you decide how hot, cold, wet, or windy it might be!

Date:

Astronomy

Oct. 17, 2014 Rise Set
Actual Time 7:59 AM EDT 6:52 PM EDT
Civil Twilight 7:29 AM EDT 7:22 PM EDT
Nautical Twilight 6:55 AM EDT 7:56 PM EDT
Astronomical Twilight 6:21 AM EDT 8:30 PM EDT
Moon 1:47 AM EDT (10/17) 3:53 PM EDT (10/17)
Length of Visible Light 11h 52m
Length of Day
10h 52m
Waning Crescent, 33% of the Moon is Illuminated
Oct 17
Waning Crescent
Oct 23
New
Oct 30
First Quarter
Nov 6
Full
Nov 14
Last Quarter

Hourly Weather History & Observations

Time (EDT) Temp. Windchill Dew Point Humidity Pressure Visibility Wind Dir Wind Speed Gust Speed Precip Events Conditions
12:14 AM 51.1 °F - 51.1 °F 100% 29.63 in 3.0 mi SW 6.9 mph - N/A   Overcast
12:35 AM 51.1 °F - 51.1 °F 100% 29.62 in 4.0 mi SW 10.4 mph - N/A Rain Light Rain
12:55 AM 50.9 °F - 50.9 °F 100% 29.62 in 3.0 mi SW 5.8 mph - N/A   Light Drizzle
1:12 AM 50.9 °F - 50.9 °F 100% 29.62 in 3.0 mi SSW 4.6 mph - N/A   Light Drizzle
1:34 AM 50.9 °F - 50.9 °F 100% 29.62 in 3.0 mi SSW 3.5 mph - N/A   Drizzle
1:54 AM 50.7 °F - 50.7 °F 100% 29.61 in 3.0 mi SSW 3.5 mph - N/A   Drizzle
2:14 AM 50.5 °F - 50.5 °F 100% 29.60 in 2.0 mi SSW 4.6 mph - N/A   Drizzle
2:34 AM 50.9 °F - 50.9 °F 100% 29.59 in 3.0 mi SSW 3.5 mph - N/A   Drizzle
2:55 AM 51.1 °F - 51.1 °F 100% 29.57 in 5.0 mi WSW 3.5 mph - N/A Rain Light Rain
3:14 AM 51.4 °F - 51.4 °F 100% 29.56 in 5.0 mi SW 5.8 mph - N/A   Overcast
3:35 AM 51.8 °F - 51.8 °F 100% 29.55 in 5.0 mi SW 5.8 mph - N/A   Overcast
3:55 AM 51.8 °F - 51.8 °F 100% 29.54 in 5.0 mi SW 3.5 mph - N/A   Overcast
4:14 AM 52.0 °F - 52.0 °F 100% 29.53 in 5.0 mi Calm Calm - N/A   Overcast
4:32 AM 52.0 °F - 52.0 °F 100% 29.52 in 5.0 mi Calm Calm - N/A   Overcast
4:54 AM 52.0 °F - 52.0 °F 100% 29.52 in 7.0 mi Calm Calm - N/A   Overcast
5:14 AM 52.0 °F - 52.0 °F 100% 29.52 in 5.0 mi SSW 4.6 mph - N/A   Overcast
5:35 AM 52.7 °F - 52.7 °F 100% 29.51 in 7.0 mi SSW 6.9 mph - N/A   Overcast
5:54 AM 52.7 °F - 52.7 °F 100% 29.51 in 5.0 mi SSW 6.9 mph - N/A   Overcast
6:14 AM 52.7 °F - 52.7 °F 100% 29.50 in 4.0 mi Calm Calm - N/A   Light Drizzle
6:35 AM 52.7 °F - 52.7 °F 100% 29.50 in 7.0 mi Calm Calm - N/A   Overcast
6:54 AM 52.7 °F - 52.7 °F 100% 29.49 in 5.0 mi Calm Calm - N/A   Overcast
7:15 AM 52.7 °F - 52.7 °F 100% 29.49 in 5.0 mi Calm Calm - N/A   Overcast
7:35 AM 52.7 °F - 52.7 °F 100% 29.48 in 5.0 mi SE 3.5 mph - N/A   Overcast
7:54 AM 52.7 °F - 52.7 °F 100% 29.48 in 5.0 mi SSE 3.5 mph - N/A   Overcast
8:15 AM 52.7 °F - 52.7 °F 100% 29.48 in 3.0 mi SSE 4.6 mph - N/A   Overcast
8:34 AM 52.7 °F - 52.7 °F 100% 29.47 in 3.0 mi South 4.6 mph - N/A   Overcast
8:55 AM 52.9 °F - 52.9 °F 100% 29.47 in 4.0 mi South 5.8 mph - N/A   Overcast
9:15 AM 52.9 °F - 52.9 °F 100% 29.47 in 4.0 mi South 5.8 mph - N/A   Overcast
9:34 AM 53.2 °F - 53.2 °F 100% 29.47 in 4.0 mi South 4.6 mph - N/A   Overcast
9:55 AM 53.2 °F - 53.2 °F 100% 29.46 in 3.0 mi South 4.6 mph - N/A   Overcast
10:15 AM 53.6 °F - 53.6 °F 100% 29.46 in 3.0 mi Calm Calm - N/A   Overcast
10:34 AM 53.6 °F - 53.6 °F 100% 29.45 in 3.0 mi South 3.5 mph - N/A   Overcast
10:55 AM 53.8 °F - 53.8 °F 100% 29.45 in 4.0 mi South 5.8 mph - N/A   Overcast
11:15 AM 54.1 °F - 54.1 °F 100% 29.45 in 4.0 mi South 3.5 mph - N/A   Overcast
11:34 AM 54.7 °F - 54.7 °F 100% 29.45 in 4.0 mi SSW 4.6 mph - N/A   Overcast
11:55 AM 55.0 °F - 55.0 °F 100% 29.45 in 5.0 mi SW 3.5 mph - N/A   Overcast
12:15 PM 55.0 °F - 54.9 °F 99% 29.45 in 3.0 mi SW 3.5 mph - N/A   Overcast
12:34 PM 54.7 °F - 54.5 °F 99% 29.45 in 2.0 mi West 8.1 mph - N/A   Overcast
12:55 PM 52.0 °F - 52.0 °F 100% 29.46 in 2.5 mi North 11.5 mph - N/A Rain Light Rain
1:15 PM 51.1 °F - 51.1 °F 100% 29.47 in 2.5 mi NNW 9.2 mph - N/A   Light Drizzle
1:34 PM 51.4 °F - 51.4 °F 100% 29.46 in 3.0 mi NNW 9.2 mph - N/A   Overcast
1:55 PM 51.6 °F - 51.6 °F 100% 29.46 in 2.0 mi NNW 9.2 mph - N/A   Overcast
2:15 PM 51.1 °F - 51.1 °F 100% 29.47 in 1.5 mi NW 8.1 mph - N/A Rain Rain
2:34 PM 51.4 °F - 51.4 °F 100% 29.47 in 1.5 mi NW 6.9 mph - N/A   Drizzle
2:55 PM 51.1 °F - 51.1 °F 100% 29.47 in 1.5 mi NW 9.2 mph - N/A   Light Drizzle
3:14 PM 50.9 °F - 50.9 °F 100% 29.47 in 2.5 mi NW 9.2 mph - N/A   Overcast
3:35 PM 51.1 °F - 50.4 °F 97% 29.48 in 10.0 mi WNW 10.4 mph - N/A Rain Light Rain
3:55 PM 50.9 °F - 50.0 °F 97% 29.49 in 10.0 mi WNW 11.5 mph - N/A   Overcast
4:14 PM 50.9 °F - 49.5 °F 95% 29.49 in 10.0 mi WNW 15.0 mph 20.7 mph N/A   Overcast
4:35 PM 50.9 °F - 49.1 °F 94% 29.50 in 10.0 mi NW 15.0 mph 20.7 mph N/A   Overcast
4:55 PM 50.4 °F - 49.3 °F 96% 29.51 in 3.0 mi NNW 13.8 mph 20.7 mph N/A   Light Drizzle
5:14 PM 49.5 °F - 48.2 °F 95% 29.52 in 4.0 mi North 16.1 mph 23.0 mph N/A Rain Light Rain
5:35 PM 48.7 °F - 47.3 °F 95% 29.54 in 5.0 mi North 16.1 mph 21.9 mph N/A   Overcast
5:55 PM 48.6 °F - 46.8 °F 93% 29.55 in 7.0 mi North 17.3 mph 29.9 mph N/A   Overcast
6:14 PM 48.2 °F - 45.7 °F 91% 29.56 in 10.0 mi NNW 18.4 mph 28.8 mph N/A   Overcast
6:35 PM 47.7 °F - 44.4 °F 89% 29.57 in 10.0 mi NNW 19.6 mph 32.2 mph N/A   Overcast
6:55 PM 47.5 °F - 45.3 °F 92% 29.59 in 5.0 mi NNW 16.1 mph 27.6 mph N/A Rain Light Rain
7:14 PM 47.1 °F - 45.0 °F 92% 29.60 in 7.0 mi NNW 20.7 mph 27.6 mph N/A Rain Rain
7:35 PM 46.8 °F - 45.0 °F 93% 29.61 in 7.0 mi NNW 21.9 mph 28.8 mph N/A Rain Rain
7:54 PM 46.4 °F 38.7 °F 44.4 °F 93% 29.62 in 10.0 mi NNW 20.7 mph 31.1 mph N/A Rain Light Rain
8:14 PM 46.0 °F 37.4 °F 43.7 °F 92% 29.63 in 5.0 mi NNW 25.3 mph 32.2 mph N/A   Overcast
8:35 PM 45.5 °F 37.8 °F 43.0 °F 91% 29.65 in 4.0 mi NNW 19.6 mph 31.1 mph N/A   Overcast
8:54 PM 45.5 °F 37.3 °F 43.0 °F 91% 29.65 in 7.0 mi NNW 21.9 mph 34.5 mph N/A   Unknown
9:14 PM 45.1 °F 36.4 °F 42.6 °F 91% 29.66 in 4.0 mi NNW 24.2 mph 39.1 mph N/A   Overcast
9:35 PM 45.1 °F 36.6 °F 42.8 °F 91% 29.67 in 2.5 mi NNW 23.0 mph 35.7 mph N/A   Unknown
9:54 PM 45.5 °F 37.3 °F 43.3 °F 92% 29.68 in 5.0 mi NNW 21.9 mph 35.7 mph N/A Rain Light Rain
10:14 PM 45.0 °F 36.6 °F 43.0 °F 93% 29.68 in 4.0 mi NW 21.9 mph 34.5 mph N/A   Unknown
10:35 PM 45.1 °F 36.2 °F 43.0 °F 92% 29.69 in 10.0 mi NNW 25.3 mph 36.8 mph N/A Rain Light Rain
10:54 PM 45.5 °F 37.1 °F 43.0 °F 91% 29.70 in 10.0 mi NNW 23.0 mph 34.5 mph N/A Rain Light Rain
11:14 PM 45.0 °F 36.4 °F 42.4 °F 91% 29.71 in 5.0 mi NNW 23.0 mph 36.8 mph N/A Rain Light Rain
11:35 PM 44.8 °F 36.2 °F 42.3 °F 91% 29.72 in 5.0 mi NNW 23.0 mph 35.7 mph N/A   Overcast
11:54 PM 44.8 °F 36.9 °F 42.4 °F 91% 29.72 in 4.0 mi NNW 19.6 mph 29.9 mph N/A   Overcast